This is the latest recevied weather packets stored in our database for station/object K1AWR. If no packets are shown the sender has not sent any weather packets the latest 10 day(s).
| Time | Temp. | Humidity | Pressure | Rain* | Wind** | Luminosity | Snow |
|---|---|---|---|---|---|---|---|
| 1778100980 | 15° C | 93% | 1006.9 hPa | 0 mm | - | 72 W/m² | - |
| 1778100674 | 15° C | 93% | 1007 hPa | 0 mm | - | 38 W/m² | - |
| 1778100373 | 15° C | 92% | 1007.1 hPa | 1.27 mm | - | 79 W/m² | - |
| 1778100069 | 15° C | 92% | 1007.2 hPa | 3.05 mm | - | 52 W/m² | - |
| 1778099768 | 15° C | 92% | 1007.1 hPa | 1.78 mm | - | 42 W/m² | - |
| 1778099464 | 15° C | 92% | 1007.2 hPa | 0 mm | - | 52 W/m² | - |
| 1778099162 | 15° C | 92% | 1007 hPa | 1.27 mm | - | 52 W/m² | - |
| 1778098858 | 15° C | 91% | 1007.1 hPa | 1.27 mm | - | 48 W/m² | - |
| 1778098555 | 15° C | 91% | 1007.3 hPa | 0 mm | - | 35 W/m² | - |
| 1778098252 | 15° C | 91% | 1007.2 hPa | 1.78 mm | - | 43 W/m² | - |
| 1778097948 | 15° C | 91% | 1007.3 hPa | 1.78 mm | - | 31 W/m² | - |
| 1778097645 | 15.56° C | 91% | 1007.4 hPa | 0 mm | - | 39 W/m² | - |
| 1778097342 | 15.56° C | 91% | 1007.4 hPa | 0 mm | - | 51 W/m² | - |
| 1778097038 | 15.56° C | 91% | 1007.4 hPa | 0 mm | - | 59 W/m² | - |
| 1778096736 | 15° C | 90% | 1007.6 hPa | 0 mm | - | 59 W/m² | - |
| 1778096432 | 15° C | 91% | 1007.4 hPa | 0 mm | - | 73 W/m² | - |
| 1778096129 | 15° C | 91% | 1007.5 hPa | 0 mm | - | 83 W/m² | - |
| 1778095827 | 15° C | 91% | 1007.5 hPa | 0 mm | - | 36 W/m² | - |
| 1778095523 | 15° C | 91% | 1007.7 hPa | 0 mm | - | 42 W/m² | - |
| 1778095219 | 15° C | 90% | 1007.6 hPa | 0 mm | - | 52 W/m² | - |
| 1778094916 | 15° C | 90% | 1007.7 hPa | 0 mm | - | 48 W/m² | - |
| 1778094612 | 15° C | 90% | 1007.7 hPa | 0 mm | - | 65 W/m² | - |
| 1778094310 | 15° C | 90% | 1007.8 hPa | 0 mm | - | 44 W/m² | - |
| 1778094006 | 15° C | 90% | 1007.7 hPa | 3.05 mm | - | 64 W/m² | - |
| 1778093704 | 15.56° C | 90% | 1007.9 hPa | 3.05 mm | - | 68 W/m² | - |
* Rain latest hour (hover to see other rain measurements)
** Current wind speed in m/s (hover to see current wind gust speed)